This demonstration page uses our WeatherBlox Daily Observations layout. Learn more.

Left ArrowRight Arrow

38.80484, -77.04692

Hourly Observations for April 8, 2021

Temp ( °F °C ) Dew Point ( °F °C ) Humidity (%) Winds ( mph kmh ) Pressure ( in mb ) Visibility ( mi km ) Precip ( " mm )
12:52 am 00:52 Cloudy 60 15.6 40 4.4 47 47 S 3 6 29.99 1016 10 16.0934 0.001 0.001
1:52 am 01:52 Cloudy 61 16.1 33 0.6 35 35 ESE 3 6 30.01 1016 10 16.0934 0 0
2:52 am 02:52 Mostly Cloudy 60 15.6 32 0 35 35 SSE 6 9 30.02 1017 10 16.0934 0 0
3:52 am 03:52 Mostly Cloudy 59 15 34 1.1 39 39 SE 6 9 30.02 1017 10 16.0934 0 0
4:52 am 04:52 Partly Cloudy 56 13.3 41 5 57 57 ENE 8 13 30.02 1017 10 16.0934 0 0
5:52 am 05:52 Partly Cloudy 55 12.8 42 5.6 62 62 ENE 6 9 30.04 1017 10 16.0934 0 0
6:52 am 06:52 Mostly Cloudy 54 12.2 43 6.1 67 67 NE 5 7 30.07 1018 10 16.0934 0 0
7:52 am 07:52 Mostly Cloudy 55 12.8 44 6.7 67 67 ENE 6 9 30.09 1019 10 16.0934 0 0
8:52 am 08:52 Partly Cloudy 58 14.4 43 6.1 58 58 E 5 7 30.09 1019 10 16.0934 0 0
9:52 am 09:52 Mostly Sunny 61 16.1 44 6.7 54 54 ESE 10 17 30.08 1019 10 16.0934 0 0
10:52 am 10:52 Partly Cloudy 65 18.3 45 7.2 49 49 SE 10 17 30.1 1019 10 16.0934 0 0
11:52 am 11:52 Partly Cloudy 68 20 45 7.2 44 44 ESE 7 11 30.08 1019 10 16.0934 0 0
12:52 pm 12:52 Mostly Cloudy 70 21.1 47 8.3 44 44 SSE 6 9 30.07 1018 10 16.0934 0 0
1:52 pm 13:52 Partly Cloudy 70 21.1 47 8.3 44 44 SE 14 22 30.04 1017 10 16.0934 0 0
2:52 pm 14:52 Partly Cloudy 72 22.2 48 8.9 43 43 SE 9 15 30.03 1017 10 16.0934 0 0
3:52 pm 15:52 Partly Cloudy 72 22.2 47 8.3 41 41 S 10 17 30.01 1016 10 16.0934 0 0
4:52 pm 16:52 Mostly Sunny 70 21.1 45 7.2 41 41 S 17 28 30.01 1016 10 16.0934 0 0
5:52 pm 17:52 Mostly Cloudy 68 20 45 7.2 44 44 SE 17 28 30.01 1016 10 16.0934 0 0
6:52 pm 18:52 Mostly Cloudy 66 18.9 45 7.2 47 47 SSE 13 20 30.02 1017 10 16.0934 0 0
7:52 pm 19:52 Mostly Cloudy 62 16.7 46 7.8 56 56 SSE 9 15 30.04 1017 10 16.0934 0 0
8:52 pm 20:52 Mostly Cloudy 61 16.1 46 7.8 58 58 SE 10 17 30.05 1018 10 16.0934 0 0
9:52 pm 21:52 Cloudy 59 15 47 8.3 64 64 SE 12 19 30.06 1018 10 16.0934 0 0
10:52 pm 22:52 Cloudy 58 14.4 48 8.9 70 70 SE 8 13 30.06 1018 10 16.0934 0 0
11:52 pm 23:52 Cloudy 57 13.9 47 8.3 69 69 SE 10 17 30.07 1018 10 16.0934 0 0

Powered by AerisWeather